Williamsport, PA

9:06 AM EDT on August 20, 2017 (GMT -0400)
Williamsport Rgnl

Weather History for KIPT - May, 2013

Change the Weather History Date:

Wednesday, May 22, 2013

  Actual Average Record
Temperature  
Mean Temperature 77 °F 62 °F  
Max Temperature 89 °F 73 °F 95 °F (1941)
Min Temperature 65 °F 50 °F 32 °F (2002)
Degree Days  
Heating Degree Days 0 5  
Month to date heating degree days 135 166  
Since 1 July heating degree days 5608 5921  
Cooling Degree Days 12 2  
Month to date cooling degree days 29 18  
Year to date cooling degree days 37 23  
Growing Degree Days 26 (Base 50)    
Moisture  
Dew Point 63 °F    
Average Humidity 66    
Maximum Humidity 93    
Minimum Humidity 39    
Precipitation  
Precipitation 0.23 in 0.12 in 1.77 in (1901)
Month to date precipitation 1.96 2.56  
Year to date precipitation 11.31 13.81  
Snow  
Snow 0.00 in 0.00 in T in (1953)
Month to date snowfall 0.0 0.0  
Since 1 July snowfall 32.7 36.0  
Snow Depth 0.00 in    
Sea Level Pressure  
Sea Level Pressure 29.82 in    
Wind  
Wind Speed 5 mph (SE)    
Max Wind Speed 29 mph    
Max Gust Speed 41 mph    
Visibility 8 miles    
Events Rain , Thunderstorm    
T = Trace of Precipitation, MM = Missing Value Source: NWS Daily Summary

Daily Weather History Graph

Daily Weather History Graph

Search for Another Location

Airport or City:

Trip Planner

Search our weather history database for the weather conditions in past years. The results will help you decide how hot, cold, wet, or windy it might be!

Date:

Astronomy

May. 22, 2013 Rise Set
Actual Time 5:42 AM EDT 8:26 PM EDT
Civil Twilight 5:10 AM EDT 8:58 PM EDT
Nautical Twilight 4:30 AM EDT 9:38 PM EDT
Astronomical Twilight 3:44 AM EDT 10:25 PM EDT
Moon 5:44 PM EDT (5/22) 3:47 AM EDT (5/22)
Length of Visible Light 15h 47m
Length of Day
14h 43m
Waxing Gibbous, 91% of the Moon is Illuminated
May 22
Waxing Gibbous
May 25
Full
May 31
Last Quarter
Jun 8
New
Jun 16
First Quarter

Hourly Weather History & Observations

Time (EDT) Temp. Heat Index Dew Point Humidity Pressure Visibility Wind Dir Wind Speed Gust Speed Precip Events Conditions
12:54 AM 75.0 °F - 66.0 °F 73% 29.81 in 10.0 mi East 3.5 mph - N/A   Clear
1:54 AM 71.1 °F - 66.0 °F 84% 29.82 in 10.0 mi Calm Calm - N/A   Clear
2:54 AM 69.1 °F - 64.9 °F 87% 29.81 in 9.0 mi Calm Calm - N/A   Clear
3:54 AM 66.9 °F - 64.0 °F 90% 29.82 in 7.0 mi Calm Calm - N/A   Clear
4:54 AM 68.0 °F - 64.9 °F 90% 29.81 in 7.0 mi Calm Calm - N/A   Clear
5:54 AM 66.0 °F - 64.0 °F 93% 29.82 in 3.0 mi Calm Calm - N/A   Clear
6:05 AM 64.4 °F - 64.4 °F 100% 29.84 in 2.5 mi Calm Calm - N/A   Clear
6:16 AM 66.2 °F - 64.4 °F 94% 29.85 in 3.0 mi Calm Calm - N/A   Partly Cloudy
6:54 AM 68.0 °F - 64.9 °F 90% 29.84 in 5.0 mi Calm Calm - N/A   Clear
7:54 AM 71.1 °F - 66.0 °F 84% 29.84 in 6.0 mi Calm Calm - N/A   Haze
8:54 AM 73.9 °F - 66.0 °F 76% 29.85 in 9.0 mi SE 3.5 mph - N/A   Overcast
9:54 AM 78.1 °F - 64.9 °F 64% 29.86 in 10.0 mi WNW 4.6 mph - N/A   Scattered Clouds
10:54 AM 82.0 °F 83.0 °F 62.1 °F 51% 29.85 in 10.0 mi Calm Calm - N/A   Clear
11:54 AM 82.9 °F 83.3 °F 61.0 °F 47% 29.84 in 10.0 mi Calm Calm - N/A   Partly Cloudy
12:54 PM 87.1 °F 86.5 °F 59.0 °F 39% 29.81 in 10.0 mi Calm Calm - N/A   Partly Cloudy
1:54 PM 84.9 °F 85.0 °F 61.0 °F 44% 29.80 in 10.0 mi SSE 10.4 mph - N/A   Mostly Cloudy
2:54 PM 86.0 °F 85.7 °F 60.1 °F 41% 29.78 in 10.0 mi South 10.4 mph 17.3 mph N/A   Mostly Cloudy
3:54 PM 87.1 °F 87.0 °F 61.0 °F 41% 29.76 in 10.0 mi South 6.9 mph - N/A   Scattered Clouds
4:54 PM 88.0 °F 87.6 °F 60.1 °F 39% 29.74 in 10.0 mi SSE 8.1 mph - N/A   Mostly Cloudy
5:54 PM 87.1 °F 87.5 °F 62.1 °F 43% 29.73 in 10.0 mi SE 13.8 mph 18.4 mph N/A   Clear
6:54 PM 84.9 °F 84.8 °F 60.1 °F 43% 29.73 in 10.0 mi SE 6.9 mph 17.3 mph N/A   Mostly Cloudy
7:10 PM 84.2 °F 84.4 °F 60.8 °F 45% 29.75 in 10.0 mi SSE 6.9 mph 17.3 mph N/A Thunderstorm Partly Cloudy
7:25 PM 77.0 °F - 57.2 °F 50% 29.79 in 10.0 mi WNW 23.0 mph 41.4 mph N/A Thunderstorm Mostly Cloudy
7:36 PM 75.2 °F - 57.2 °F 53% 29.80 in 10.0 mi WNW 8.1 mph 24.2 mph N/A Thunderstorm Mostly Cloudy
7:46 PM 73.4 °F - 57.2 °F 57% 29.84 in 10.0 mi West 19.6 mph 35.7 mph N/A   Overcast
7:54 PM 68.0 °F - 62.1 °F 81% 29.83 in 4.0 mi West 20.7 mph 35.7 mph 0.00 in Rain Rain
7:57 PM 66.2 °F - 62.6 °F 88% 29.83 in 2.5 mi West 15.0 mph 34.5 mph 0.04 in Rain , Thunderstorm Heavy Thunderstorms and Rain
8:17 PM 66.2 °F - 62.6 °F 88% 29.85 in 8.0 mi NNE 3.5 mph - 0.18 in Rain , Thunderstorm Light Thunderstorms and Rain
8:49 PM 66.2 °F - 64.4 °F 94% 29.87 in 8.0 mi East 8.1 mph - 0.21 in Rain Light Rain
8:54 PM 66.9 °F - 64.0 °F 90% 29.86 in 10.0 mi East 6.9 mph - 0.21 in Rain Light Rain
9:54 PM 66.0 °F - 63.0 °F 90% 29.86 in 10.0 mi East 10.4 mph - 0.02 in Rain Light Rain
10:54 PM 66.0 °F - 63.0 °F 90% 29.85 in 10.0 mi East 8.1 mph - 0.00 in Rain Light Rain
11:54 PM 66.0 °F - 62.1 °F 87% 29.85 in 10.0 mi NE 3.5 mph - 0.00 in   Scattered Clouds